H1 CPF 2 NER 2023 1 8 9 008 01 glonass116 H2 0907001 9116 36111 2023 1 8 0 0 0 2023 1 11 23 45 0 900 1 1 0 0 0 1 H9 10 0 59952 0.00000 0 3560993.554 -10618452.950 -22918014.725 10 0 59952 900.00000 0 6348924.676 -10402715.425 -22407960.354 10 0 59952 1800.00000 0 9055683.410 -10390569.629 -21462723.602 10 0 59952 2700.00000 0 11614481.357 -10567122.191 -20100624.964 10 0 59952 3600.00000 0 13963461.737 -10906164.984 -18348082.363 10 0 59952 4500.00000 0 16048045.656 -11371374.319 -16239102.260 10 0 59952 5400.00000 0 17822982.836 -11917952.692 -13814623.021 10 0 59952 6300.00000 0 19254021.906 -12494643.975 -11121722.698 10 0 59952 7200.00000 0 20319130.960 -13046037.011 -8212706.212 10 0 59952 8100.00000 0 21009217.813 -13515060.236 -5144089.376 10 0 59952 9000.00000 0 21328320.344 -13845561.600 -1975499.408 10 0 59952 9900.00000 0 21293259.383 -13984864.250 1231486.432 10 0 59952 10800.00000 0 20932769.455 -13886189.229 4414541.178 10 0 59952 11700.00000 0 20286144.584 -13510841.912 7511803.580 10 0 59952 12600.00000 0 19401457.035 -12830068.964 10463084.342 10 0 59952 13500.00000 0 18333424.735 -11826506.344 13211039.123 10 0 59952 14400.00000 0 17141017.914 -10495156.215 15702285.016 10 0 59952 15300.00000 0 15884906.501 -8843850.765 17888438.463 10 0 59952 16200.00000 0 14624856.210 -6893182.458 19727054.398 10 0 59952 17100.00000 0 13417183.095 -4675902.736 21182448.555 10 0 59952 18000.00000 0 12312373.618 -2235813.484 22226387.218 10 0 59952 18900.00000 0 11352970.004 373803.253 22838631.613 10 0 59952 19800.00000 0 10571809.217 3092152.681 23007326.909 10 0 59952 20700.00000 0 9990688.876 5853210.634 22729228.790 10 0 59952 21600.00000 0 9619515.401 8588228.826 22009763.674 10 0 59952 22500.00000 0 9455969.376 11228358.744 20862921.660 10 0 59952 23400.00000 0 9485701.531 13707285.915 19310984.358 10 0 59952 24300.00000 0 9683050.483 15963766.013 17384092.778 10 0 59952 25200.00000 0 10012251.599 17943958.151 15119663.382 10 0 59952 26100.00000 0 10429085.738 19603458.985 12561663.297 10 0 59952 27000.00000 0 10882898.149 20908953.647 9759758.349 10 0 59952 27900.00000 0 11318902.177 21839415.351 6768350.109 10 0 59952 28800.00000 0 11680670.338 22386804.125 3645520.463 10 0 59952 29700.00000 0 11912707.300 22556236.171 451904.101 10 0 59952 30600.00000 0 11962995.709 22365617.366 -2750489.162 10 0 59952 31500.00000 0 11785406.823 21844756.914 -5899479.059 10 0 59952 32400.00000 0 11341873.558 21033999.018 -8933922.957 10 0 59952 33300.00000 0 10604233.422 19982430.637 -11794903.581 10 0 59952 34200.00000 0 9555662.834 18745741.185 -14426873.016 10 0 59952 35100.00000 0 8191641.396 17383824.539 -16778730.683 10 0 59952 36000.00000 0 6520404.540 15958224.414 -18804814.349 10 0 59952 36900.00000 0 4562864.401 14529530.522 -20465785.048 10 0 59952 37800.00000 0 2352001.063 13154834.801 -21729389.048 10 0 59952 38700.00000 0 -68251.664 11885354.184 -22571082.463 10 0 59952 39600.00000 0 -2644580.598 10764319.296 -22974506.720 10 0 59952 40500.00000 0 -5316263.312 9825217.087 -22931806.040 10 0 59952 41400.00000 0 -8017453.282 9090460.548 -22443780.960 10 0 59952 42300.00000 0 -10679686.023 8570540.776 -21519874.964 10 0 59952 43200.00000 0 -13234503.093 8263696.432 -20177994.324 10 0 59952 44100.00000 0 -15616085.760 8156114.046 -18444164.284 10 0 59952 45000.00000 0 -17763789.425 8222650.418 -16352027.802 10 0 59952 45900.00000 0 -19624473.898 8428046.431 -13942195.997 10 0 59952 46800.00000 0 -21154532.826 8728580.922 -11261462.334 10 0 59952 47700.00000 0 -22321537.826 9074094.608 -8361895.382 10 0 59952 48600.00000 0 -23105428.863 9410298.328 -5299827.498 10 0 59952 49500.00000 0 -23499201.283 9681267.602 -2134758.937 10 0 59952 50400.00000 0 -23509060.939 9832017.504 1071801.044 10 0 59952 51300.00000 0 -23154041.263 9811048.191 4257533.189 10 0 59952 52200.00000 0 -22465098.893 9572752.581 7360523.597 10 0 59952 53100.00000 0 -21483726.401 9079583.426 10320471.009 10 0 59952 54000.00000 0 -20260141.112 8303887.165 13079862.057 10 0 59952 54900.00000 0 -18851126.899 7229326.126 15585091.122 10 0 59952 55800.00000 0 -17317620.283 5851828.094 17787502.637 10 0 59952 56700.00000 0 -15722142.794 4180022.284 19644335.562 10 0 59952 57600.00000 0 -14126187.770 2235142.446 21119551.847 10 0 59952 58500.00000 0 -12587671.248 50400.247 22184533.061 10 0 59952 59400.00000 0 -11158553.690 -2330145.803 22818632.229 10 0 59952 60300.00000 0 -9882731.689 -4853179.555 23009570.696 10 0 59952 61200.00000 0 -8794287.343 -7458109.139 22753672.871 10 0 59952 62100.00000 0 -7916167.713 -10079359.977 22055934.736 10 0 59952 63000.00000 0 -7259348.734 -12648884.387 20929925.066 10 0 59952 63900.00000 0 -6822517.644 -15098784.185 19397521.370 10 0 59952 64800.00000 0 -6592286.296 -17363938.041 17488485.580 10 0 59952 65700.00000 0 -6543925.525 -19384525.041 15239887.436 10 0 59952 66600.00000 0 -6642588.998 -21108339.966 12695386.442 10 0 59952 67500.00000 0 -6844974.386 -22492804.421 9904385.921 10 0 59952 68400.00000 0 -7101351.352 -23506590.385 6921075.221 10 0 59952 69300.00000 0 -7357870.351 -24130788.782 3803378.484 10 0 59952 70200.00000 0 -7559054.312 -24359574.586 611830.278 10 0 59952 71100.00000 0 -7650367.462 -24200341.031 -2591600.087 10 0 59952 72000.00000 0 -7580752.211 -23673297.657 -5744712.413 10 0 59952 72900.00000 0 -7305026.277 -22810549.478 -8786284.076 10 0 59952 73800.00000 0 -6786038.061 -21654696.331 -11657259.323 10 0 59952 74700.00000 0 -5996488.535 -20257011.564 -14301896.001 10 0 59952 75600.00000 0 -4920341.860 -18675276.860 -16668847.326 10 0 59952 76500.00000 0 -3553764.364 -16971364.231 -18712157.734 10 0 59952 77400.00000 0 -1905551.328 -15208666.711 -20392153.522 10 0 59952 78300.00000 0 2977.544 -13449485.339 -21676211.347 10 0 59952 79200.00000 0 2138610.830 -11752481.597 -22539390.020 10 0 59952 80100.00000 0 4457381.084 -10170301.578 -22964913.701 10 0 59952 81000.00000 0 6906157.441 -8747470.707 -22944497.468 10 0 59952 81900.00000 0 9424630.017 -7518646.418 -22478509.171 10 0 59952 82800.00000 0 11947604.639 -6507301.208 -21575964.427 10 0 59952 83700.00000 0 14407513.437 -5724890.471 -20254354.761 10 0 59952 84600.00000 0 16737037.819 -5170539.210 -18539311.799 10 0 59952 85500.00000 0 18871735.216 -4831260.203 -16464113.641 10 0 59953 0.00000 0 20752560.616 -4682693.786 -14069042.597 10 0 59953 900.00000 0 22328179.030 -4690337.593 -11400604.869 10 0 59953 1800.00000 0 23556969.972 -4811214.055 -8510630.209 10 0 59953 2700.00000 0 24408643.627 -4995904.548 -5455264.423 10 0 59953 3600.00000 0 24865398.442 -5190863.905 -2293877.369 10 0 59953 4500.00000 0 24922572.659 -5340916.692 912093.350 10 0 59953 5400.00000 0 24588762.318 -5391828.880 4100339.961 10 0 59953 6300.00000 0 23885401.018 -5292845.256 7208899.599 10 0 59953 7200.00000 0 22845819.349 -4999084.294 10177362.584 10 0 59953 8100.00000 0 21513823.957 -4473688.233 12948049.815 10 0 59953 9000.00000 0 19941856.253 -3689636.425 15467135.894 10 0 59953 9900.00000 0 18188808.704 -2631144.467 17685695.757 10 0 59953 10800.00000 0 16317590.890 -1294589.243 19560654.481 10 0 59953 11700.00000 0 14392547.507 311080.061 21055621.906 10 0 59953 12600.00000 0 12476836.630 2164463.125 22141596.129 10 0 59953 13500.00000 0 10629877.842 4232357.680 22797522.787 10 0 59953 14400.00000 0 8904976.465 6470910.486 23010699.802 10 0 59953 15300.00000 0 7347222.618 8827222.900 22777020.270 10 0 59953 16200.00000 0 5991751.944 11241344.956 22101049.272 10 0 59953 17100.00000 0 4862439.647 13648575.800 20995933.377 10 0 59953 18000.00000 0 3971081.319 15981975.414 19483144.711 10 0 59953 18900.00000 0 3317093.653 18174983.865 17592064.472 10 0 59953 19800.00000 0 2887746.401 20164039.675 15359413.693 10 0 59953 20700.00000 0 2658914.855 21891088.701 12828541.974 10 0 59953 21600.00000 0 2596320.237 23305879.377 10048587.597 10 0 59953 22500.00000 0 2657204.973 24367948.823 7073524.926 10 0 59953 23400.00000 0 2792371.575 25048217.030 3961117.420 10 0 59953 24300.00000 0 2948498.407 25330122.597 771796.447 10 0 59953 25200.00000 0 3070633.943 25210252.609 -2432512.325 10 0 59953 26100.00000 0 3104763.537 24698440.362 -5589591.889 10 0 59953 27000.00000 0 3000339.550 23817326.993 -8638142.652 10 0 59953 27900.00000 0 2712667.253 22601405.552 -11518973.223 10 0 59953 28800.00000 0 2205045.003 21095587.791 -14176149.806 10 0 59953 29700.00000 0 1450567.546 19353353.887 -16558081.743 10 0 59953 30600.00000 0 433515.546 17434562.726 -18618522.165 10 0 59953 31500.00000 0 -849728.112 15403014.489 -20317464.360 10 0 59953 32400.00000 0 -2390274.844 13323867.370 -21621916.804 10 0 59953 33300.00000 0 -4166857.791 11261016.157 -22506542.139 10 0 59953 34200.00000 0 -6146486.032 9274541.809 -22954148.064 10 0 59953 35100.00000 0 -8285599.485 7418337.939 -22956020.972 10 0 59953 36000.00000 0 -10531677.574 5738012.553 -22512096.071 10 0 59953 36900.00000 0 -12825235.721 4269151.906 -21630960.723 10 0 59953 37800.00000 0 -15102127.554 3036018.107 -20329690.835 10 0 59953 38700.00000 0 -17296057.889 2050734.018 -18633523.096 10 0 59953 39600.00000 0 -19341202.385 1312988.758 -16575368.984 10 0 59953 40500.00000 0 -21174825.219 810275.286 -14195179.426 10 0 59953 41400.00000 0 -22739785.794 518649.294 -11539171.831 10 0 59953 42300.00000 0 -23986829.781 403976.776 -8658934.124 10 0 59953 43200.00000 0 -24876568.587 423616.954 -5610422.842 10 0 59953 44100.00000 0 -25381064.157 528468.786 -2452874.649 10 0 59953 45000.00000 0 -25484952.295 665293.853 752347.339 10 0 59953 45900.00000 0 -25186057.285 779216.527 3942949.680 10 0 59953 46800.00000 0 -24495471.775 816294.757 7056923.426 10 0 59953 47700.00000 0 -23437098.538 726051.772 10033753.314 10 0 59953 48600.00000 0 -22046673.536 463860.625 12815597.246 10 0 59953 49500.00000 0 -20370311.374 -6920.212 15348412.647 10 0 59953 50400.00000 0 -18462634.577 -713151.330 17583007.386 10 0 59953 51300.00000 0 -16384565.403 -1670533.572 19475994.787 10 0 59953 52200.00000 0 -14200872.846 -2882704.884 20990634.344 10 0 59953 53100.00000 0 -11977577.604 -4340851.564 22097542.052 10 0 59953 54000.00000 0 -9779323.201 -6023851.138 22775257.093 10 0 59953 54900.00000 0 -7666822.696 -7898941.648 23010654.469 10 0 59953 55800.00000 0 -5694486.904 -9922890.178 22799196.063 10 0 59953 56700.00000 0 -3908332.167 -12043612.636 22145015.776 10 0 59953 57600.00000 0 -2344253.862 -14202178.009 21060837.355 10 0 59953 58500.00000 0 -1026736.513 -16335114.237 19567726.619 10 0 59953 59400.00000 0 31946.915 -18376920.284 17694682.826 10 0 59953 60300.00000 0 832014.400 -20262680.275 15478076.829 10 0 59953 61200.00000 0 1385922.429 -21930671.058 12960946.603 10 0 59953 62100.00000 0 1717593.549 -23324854.721 10192163.438 10 0 59953 63000.00000 0 1861157.436 -24397152.117 7225484.562 10 0 59953 63900.00000 0 1859259.368 -25109402.348 4118510.434 10 0 59953 64800.00000 0 1761008.299 -25434926.175 931566.771 10 0 59953 65700.00000 0 1619651.851 -25359627.763 -2273466.960 10 0 59953 66600.00000 0 1490077.131 -24882588.413 -5434359.587 10 0 59953 67500.00000 0 1426243.654 -24016127.260 -8489737.268 10 0 59953 68400.00000 0 1478657.538 -22785326.266 -11380275.748 10 0 59953 69300.00000 0 1691994.340 -21227039.324 -14049852.373 10 0 59953 70200.00000 0 2102971.618 -19388426.927 -16446635.344 10 0 59953 71100.00000 0 2738561.730 -17325077.609 -18524089.102 10 0 59953 72000.00000 0 3614620.938 -15098794.682 -20241876.336 10 0 59953 72900.00000 0 4734993.404 -12775140.483 -21566639.454 10 0 59953 73800.00000 0 6091128.703 -10420840.333 -22472646.682 10 0 59953 74700.00000 0 7662229.920 -8101154.081 -22942290.603 10 0 59953 75600.00000 0 9415927.265 -5877324.166 -22966429.838 10 0 59953 76500.00000 0 11309450.227 -3804205.817 -22544567.449 10 0 59953 77400.00000 0 13291250.359 -1928177.358 -21684862.633 10 0 59953 78300.00000 0 15303008.075 -285416.797 -20403975.385 10 0 59953 79200.00000 0 17281940.598 1099384.350 -18726746.772 10 0 59953 80100.00000 0 19163315.463 2213817.190 -16685720.590 10 0 59953 81000.00000 0 20883065.116 3058029.216 -14320515.137 10 0 59953 81900.00000 0 22380393.671 3644465.167 -11677056.701 10 0 59953 82800.00000 0 23600266.723 3997086.732 -8806689.259 10 0 59953 83700.00000 0 24495679.854 4150104.839 -5765177.359 10 0 59953 84600.00000 0 25029610.370 4146278.844 -2611621.410 10 0 59953 85500.00000 0 25176569.911 4034855.242 592693.284 10 0 59954 0.00000 0 24923692.366 3869233.976 3785490.798 10 0 59954 900.00000 0 24271310.629 3704461.848 6904720.140 10 0 59954 1800.00000 0 23232998.310 3594660.253 9889763.541 10 0 59954 2700.00000 0 21835073.755 3590496.669 12682619.123 10 0 59954 3600.00000 0 20115587.289 3736807.974 15229030.080 10 0 59954 4500.00000 0 18122834.302 4070476.819 17479539.837 10 0 59954 5400.00000 0 15913456.469 4618651.453 19390452.276 10 0 59954 6300.00000 0 13550210.649 5397384.827 20924678.527 10 0 59954 7200.00000 0 11099498.667 6410750.890 22052454.103 10 0 59954 8100.00000 0 8628760.938 7650475.897 22751913.000 10 0 59954 9000.00000 0 6203842.209 9096100.842 23009508.165 10 0 59954 9900.00000 0 3886438.678 10715668.854 22820270.717 10 0 59954 10800.00000 0 1731731.931 12466909.447 22187903.386 10 0 59954 11700.00000 0 -213692.811 14298870.828 21124706.643 10 0 59954 12600.00000 0 -1913558.541 16153932.686 19651339.090 10 0 59954 13500.00000 0 -3343168.382 17970116.019 17796416.696 10 0 59954 14400.00000 0 -4490185.858 19683594.104 15595958.388 10 0 59954 15300.00000 0 -5354892.206 21231300.043 13092688.429 10 0 59954 16200.00000 0 -5949911.278 22553522.195 10335208.735 10 0 59954 17100.00000 0 -6299414.819 23596379.036 7377056.778 10 0 59954 18000.00000 0 -6437842.568 24314069.732 4275667.194 10 0 59954 18900.00000 0 -6408192.102 24670805.997 1091257.077 10 0 59954 19800.00000 0 -6259951.386 24642343.930 -2114343.381 10 0 59954 20700.00000 0 -6046762.090 24217051.208 -5278891.966 10 0 59954 21600.00000 0 -5823913.068 23396464.510 -8340943.680 10 0 59954 22500.00000 0 -5645770.597 22195313.360 -11241044.395 10 0 59954 23400.00000 0 -5563254.528 20641009.064 -13922885.423 10 0 59954 24300.00000 0 -5621467.569 18772619.759 -16334396.434 10 0 59954 25200.00000 0 -5857578.327 16639374.160 -18428755.526 10 0 59954 26100.00000 0 -6299047.975 14298756.191 -20165296.860 10 0 59954 27000.00000 0 -6962275.863 11814269.732 -21510298.552 10 0 59954 27900.00000 0 -7851721.802 9252966.173 -22437635.871 10 0 59954 28800.00000 0 -8959542.599 6682837.354 -22929287.418 10 0 59954 29700.00000 0 -10265759.040 4170181.775 -22975684.798 10 0 59954 30600.00000 0 -11738947.255 1777052.863 -22575899.260 10 0 59954 31500.00000 0 -13337426.456 -441105.228 -21737661.711 10 0 59954 32400.00000 0 -15010894.357 -2437536.880 -20477215.611 10 0 59954 33300.00000 0 -16702442.766 -4175883.673 -18819005.293 10 0 59954 34200.00000 0 -18350869.736 -5631452.119 -16795205.284 10 0 59954 35100.00000 0 -19893192.109 -6791988.562 -14445099.252 10 0 59954 36000.00000 0 -21267253.580 -7657929.775 -11814320.013 10 0 59954 36900.00000 0 -22414319.027 -8242119.700 -8953964.991 10 0 59954 37800.00000 0 -23281546.137 -8569005.179 -5919603.934 10 0 59954 38700.00000 0 -23824230.184 -8673345.495 -2770198.060 10 0 59954 39600.00000 0 -24007727.085 -8598491.011 433048.166 10 0 59954 40500.00000 0 -23808973.261 -8394304.570 3627879.969 10 0 59954 41400.00000 0 -23217537.778 -8114814.427 6752206.289 10 0 59954 42300.00000 0 -22236161.909 -7815698.920 9745310.540 10 0 59954 43200.00000 0 -20880762.868 -7551710.135 12549034.039 10 0 59954 44100.00000 0 -19179901.250 -7374146.414 15108908.602 10 0 59954 45000.00000 0 -17173734.099 -7328481.261 17375215.831 10 0 59954 45900.00000 0 -14912497.361 -7452249.475 19303952.453 10 0 59954 46800.00000 0 -12454581.094 -7773280.253 20857683.120 10 0 59954 47700.00000 0 -9864277.605 -8308352.149 22006264.307 10 0 59954 48600.00000 0 -7209296.209 -9062326.925 22727425.781 10 0 59954 49500.00000 0 -4558147.713 -10027799.097 23007198.936 10 0 59954 50400.00000 0 -1977506.995 -11185276.245 22840184.199 10 0 59954 51300.00000 0 470337.404 -12503882.992 22229652.804 10 0 59954 52200.00000 0 2729841.612 -13942559.625 21187481.279 10 0 59954 53100.00000 0 4754275.571 -15451705.638 19733920.044 10 0 59954 54000.00000 0 6507418.187 -16975199.935 17897200.544 10 0 59954 54900.00000 0 7964809.138 -18452713.579 15712988.276 10 0 59954 55800.00000 0 9114506.370 -19822218.609 13223692.032 10 0 59954 56700.00000 0 9957318.992 -21022588.103 10477642.332 10 0 59954 57600.00000 0 10506507.050 -21996178.612 7528154.634 10 0 59954 58500.00000 0 10786961.952 -22691286.561 4432495.276 10 0 59954 59400.00000 0 10833903.077 -23064375.328 1250770.094 10 0 59954 60300.00000 0 10691146.437 -23081979.104 -1955242.756 10 0 59954 61200.00000 0 10409019.219 -22722203.081 -5123292.836 10 0 59954 62100.00000 0 10042009.015 -21975756.422 -8191866.822 10 0 59954 63000.00000 0 9646247.647 -20846473.985 -11101383.525 10 0 59954 63900.00000 0 9276936.450 -19351304.341 -13795350.958 10 0 59954 64800.00000 0 8985822.262 -17519763.949 -16221462.890 10 0 59954 65700.00000 0 8818831.073 -15392879.704 -18332613.532 10 0 59954 66600.00000 0 8813959.592 -13021663.555 -20087810.739 10 0 59954 67500.00000 0 8999513.927 -10465182.235 -21452970.257 10 0 59954 68400.00000 0 9392769.993 -7788301.952 -22401575.976 10 0 59954 69300.00000 0 9999112.399 -5059201.339 -22915193.679 10 0 59954 70200.00000 0 10811688.569 -2346755.403 -22983828.713 10 0 59954 71100.00000 0 11811593.232 282101.611 -22606120.867 10 0 59954 72000.00000 0 12968576.238 2764925.573 -21789372.715 10 0 59954 72900.00000 0 14242244.776 5046119.005 -20549410.777 10 0 59954 73800.00000 0 15583710.357 7078997.710 -18910281.888 10 0 59954 74700.00000 0 16937612.148 8827482.281 -16903790.203 10 0 59954 75600.00000 0 18244432.365 10267344.956 -14568883.297 10 0 59954 76500.00000 0 19443006.928 11386960.652 -11950898.708 10 0 59954 77400.00000 0 20473126.030 12187531.607 -9100685.133 10 0 59954 78300.00000 0 21278115.247 12682777.195 -6073615.013 10 0 59954 79200.00000 0 21807288.255 12898102.853 -2928507.572 10 0 59954 80100.00000 0 22018167.416 12869284.035 273516.587 10 0 59954 81000.00000 0 21878377.971 12640721.626 3470226.717 10 0 59954 81900.00000 0 21367135.384 12263343.471 6599495.420 10 0 59954 82800.00000 0 20476262.432 11792241.554 9600510.102 10 0 59954 83700.00000 0 19210692.475 11284145.622 12414958.272 10 0 59954 84600.00000 0 17588436.987 10794840.802 14988163.151 10 0 59954 85500.00000 0 15640018.159 10376639.072 17270147.046 10 0 59955 0.00000 0 13407390.227 10076011.961 19216601.666 10 0 59955 900.00000 0 10942392.844 9931484.648 20789747.556 10 0 59955 1800.00000 0 8304803.898 9971880.853 21959063.677 10 0 59955 2700.00000 0 5560068.577 10214992.056 22701876.986 10 0 59955 3600.00000 0 2776801.645 10666727.592 23003798.391 10 0 59955 4500.00000 0 24165.199 11320781.175 22858998.289 10 0 59955 5400.00000 0 -2630769.664 12158828.035 22270316.658 10 0 59955 6300.00000 0 -5125568.584 13151244.533 21249205.864 10 0 59955 7200.00000 0 -7404782.174 14258320.296 19815507.445 10 0 59955 8100.00000 0 -9422000.323 15431912.290 17997067.161 10 0 59955 9000.00000 0 -11141528.271 16617471.799 15829195.497 10 0 59955 9900.00000 0 -12539615.765 17756359.489 13353983.825 10 0 59955 10800.00000 0 -13605189.266 18788351.627 10619489.032 10 0 59955 11700.00000 0 -14340057.805 19654232.269 7678802.096 10 0 59955 12600.00000 0 -14758584.939 20298362.419 4589018.427 10 0 59955 13500.00000 0 -14886841.706 20671117.933 1410129.836 10 0 59955 14400.00000 0 -14761277.153 20731093.205 -1796140.411 10 0 59955 15300.00000 0 -14426963.307 20446977.426 -4967536.563 10 0 59955 16200.00000 0 -13935489.357 19799023.814 -8042479.918 10 0 59955 17100.00000 0 -13342594.590 18780049.319 -10961265.135 10 0 59955 18000.00000 0 -12705640.514 17395922.002 -13667219.768 10 0 59955 18900.00000 0 -12081029.343 15665514.834 -16107804.355 10 0 59955 19800.00000 0 -11521678.094 13620126.971 -18235631.709 10 0 59955 20700.00000 0 -11074655.059 11302395.936 -20009385.611 10 0 59955 21600.00000 0 -10779078.449 8764745.311 -21394621.398 10 0 59955 22500.00000 0 -10664365.812 6067431.787 -22364433.216 10 0 59955 23400.00000 0 -10748908.010 3276272.162 -22899975.345 10 0 59955 24300.00000 0 -11039223.695 460143.919 -22990827.820 10 0 59955 25200.00000 0 -11529630.045 -2311637.610 -22635199.506 10 0 59955 26100.00000 0 -12202443.923 -4971957.357 -21839964.733 10 0 59955 27000.00000 0 -13028705.422 -7458445.228 -20620532.713 10 0 59955 27900.00000 0 -13969393.899 -9715822.560 -19000551.939 10 0 59955 28800.00000 0 -14977085.880 -11697953.494 -17011454.887 10 0 59955 29700.00000 0 -15997985.612 -13369516.696 -14691851.328 10 0 59955 30600.00000 0 -16974243.182 -14707228.538 -12086781.443 10 0 59955 31500.00000 0 -17846462.824 -15700567.312 -9246842.839 10 0 59955 32400.00000 0 -18556295.690 -16351969.051 -6227208.069 10 0 59955 33300.00000 0 -19049007.583 -16676487.534 -3086551.604 10 0 59955 34200.00000 0 -19275912.810 -16700933.552 114092.685 10 0 59955 35100.00000 0 -19196570.902 -16462530.658 3312521.057 10 0 59955 36000.00000 0 -18780652.696 -16007144.946 6446572.848 10 0 59955 36900.00000 0 -18009396.202 -15387164.418 9455342.549 10 0 59955 37800.00000 0 -16876590.090 -14659118.421 12280366.925 10 0 59955 38700.00000 0 -15389042.385 -13881138.410 14866763.556 10 0 59955 39600.00000 0 -13566513.950 -13110367.935 17164298.261 10 0 59955 40500.00000 0 -11441118.817 -12400431.713 19128360.560 10 0 59955 41400.00000 0 -9056215.836 -11799070.846 20720828.353 10 0 59955 42300.00000 0 -6464837.426 -11346043.949 21910805.243 10 0 59955 43200.00000 0 -3727720.321 -11071382.512 22675216.688 10 0 59955 44100.00000 0 -911019.743 -10994073.762 22999253.974 10 0 59955 45000.00000 0 1916198.476 -11121226.118 22876657.899 10 0 59955 45900.00000 0 4684584.406 -11447752.084 22309837.207 10 0 59955 46800.00000 0 7327140.894 -11956581.649 21309819.757 10 0 59955 47700.00000 0 9781762.148 -12619397.131 19896037.522 10 0 59955 48600.00000 0 11993569.579 -13397858.515 18095949.578 10 0 59955 49500.00000 0 13916948.864 -14245267.883 15944510.092 10 0 59955 50400.00000 0 15517204.379 -15108603.033 13483491.381 10 0 59955 51300.00000 0 16771763.176 -15930834.868 10760674.744 10 0 59955 52200.00000 0 17670879.260 -16653431.072 7828924.375 10 0 59955 53100.00000 0 18217809.685 -17218940.598 4745162.154 10 0 59955 54000.00000 0 18428456.082 -17573549.889 1569262.998 10 0 59955 54900.00000 0 18330487.613 -17669502.777 -1637107.771 10 0 59955 55800.00000 0 17961983.022 -17467281.565 -4811692.253 10 0 59955 56700.00000 0 17369649.766 -16937456.730 -7892849.527 10 0 59955 57600.00000 0 16606695.902 -16062126.582 -10820753.197 10 0 59955 58500.00000 0 15730445.001 -14835885.416 -13538553.303 10 0 59955 59400.00000 0 14799795.076 -13266278.533 -15993479.927 10 0 59955 60300.00000 0 13872628.920 -11373724.005 -18137867.003 10 0 59955 61200.00000 0 13003285.138 -9190903.468 -19930076.490 10 0 59955 62100.00000 0 12240196.414 -6761646.387 -21335305.237 10 0 59955 63000.00000 0 11623794.305 -4139353.276 -22326259.216 10 0 59955 63900.00000 0 11184768.593 -1385022.633 -22883682.364 10 0 59955 64800.00000 0 10942754.176 1435037.340 -22996730.150 10 0 59955 65700.00000 0 10905500.551 4251718.144 -22663180.837 10 0 59955 66600.00000 0 11068558.731 6995738.130 -21889480.441 10 0 59955 67500.00000 0 11415498.737 9600279.218 -20690620.395 10 0 59955 68400.00000 0 11918648.657 12003524.534 -19089850.013 10 0 59955 69300.00000 0 12540324.353 14150992.156 -17118228.905 10 0 59955 70200.00000 0 13234498.264 15997568.604 -14814027.500 10 0 59955 71100.00000 0 13948837.208 17509158.012 -12221986.746 10 0 59955 72000.00000 0 14627023.358 18663878.667 -9392450.949 10 0 59955 72900.00000 0 15211260.426 19452757.555 -6380390.249 10 0 59955 73800.00000 0 15644859.011 19879894.444 -3244331.581 10 0 59955 74700.00000 0 15874791.481 19962089.261 -45219.075 10 0 59955 75600.00000 0 15854107.822 19727949.198 3154773.659 10 0 59955 76500.00000 0 15544109.548 19216513.884 6293455.811 10 0 59955 77400.00000 0 14916189.145 18475457.513 9309832.024 10 0 59955 78300.00000 0 13953256.331 17558944.416 12145291.253 10 0 59955 79200.00000 0 12650689.962 16525229.232 14744748.185 10 0 59955 80100.00000 0 11016774.709 15434103.692 17057714.645 10 0 59955 81000.00000 0 9072603.192 14344298.048 19039280.063 10 0 59955 81900.00000 0 6851446.818 13310946.962 20650982.042 10 0 59955 82800.00000 0 4397620.916 12383226.607 21861550.338 10 0 59955 83700.00000 0 1764890.764 11602262.185 22647510.311 10 0 59955 84600.00000 0 -985515.815 10999393.522 22993634.666 10 0 59955 85500.00000 0 -3787207.226 10594871.104 22893235.267 99